Location: Unspecified
(63.7467°N, 0.0000°E)
Time: 05:02:42
(UTC+00:00)

DMC 3-FM2 - Visible Passes

Search period start: 04 April 2026 00:00
Search period end: 14 April 2026 00:00
Orbit: 608 x 615 km, 97.7° (Epoch: 29 March)

Date Brightness Start Highest point End Pass type
(mag) Time Alt. Az. Time Alt. Az. Time Alt. Az.
4 Apr ? 00:37:29 10° N 00:39:16 12° NNW 00:41:05 10° NW visible
4 Apr ? 20:03:26 10° NE 20:06:41 20° E 20:09:55 10° SE visible
4 Apr ? 21:38:57 10° NNE 21:43:18 85° ESE 21:47:04 14° SSW visible
4 Apr ? 23:15:18 10° N 23:18:55 27° NW 23:22:33 10° WSW visible
5 Apr ? 00:52:29 10° NNW 00:53:42 11° NNW 00:54:55 10° NW visible
5 Apr ? 20:17:53 10° NNE 20:21:30 25° E 20:25:01 10° SE visible
5 Apr ? 21:53:37 10° NNE 21:57:57 78° WNW 22:02:01 12° SSW visible
5 Apr ? 23:30:02 10° N 23:33:26 23° NW 23:36:49 10° W visible
6 Apr ? 20:32:25 10° NNE 20:36:17 31° E 20:39:59 11° SSE visible
6 Apr ? 22:08:17 10° NNE 22:12:35 63° WNW 22:16:51 10° SW visible
6 Apr ? 23:44:48 10° N 23:47:55 20° NW 23:51:02 10° W visible
7 Apr ? 20:46:58 10° NNE 20:51:03 38° E 20:54:56 11° SSE visible
7 Apr ? 22:22:58 10° NNE 22:27:11 51° WNW 22:31:22 10° SW visible
7 Apr ? 23:59:35 10° N 00:02:23 17° NW 00:05:11 10° W visible
8 Apr ? 21:01:33 10° NNE 21:05:46 48° E 21:09:52 10° S visible
8 Apr ? 22:37:40 10° N 22:41:46 41° WNW 22:45:50 10° SW visible
9 Apr ? 00:14:22 10° N 00:16:49 15° NW 00:19:17 10° WNW visible
9 Apr ? 21:16:10 10° NNE 21:20:29 60° ESE 21:24:46 10° S visible
9 Apr ? 22:52:23 10° N 22:56:19 34° NW 23:00:14 10° WSW visible
10 Apr ? 00:29:13 10° N 00:31:16 13° NNW 00:33:18 10° WNW visible
10 Apr ? 21:30:48 10° NNE 21:35:09 76° ESE 21:39:29 10° SSW visible
10 Apr ? 23:07:06 10° N 23:10:51 29° NW 23:14:34 10° WSW visible
11 Apr ? 00:44:07 10° N 00:45:41 12° NNW 00:47:14 10° NW visible
11 Apr ? 20:09:50 10° NE 20:13:16 22° E 20:16:41 10° SE visible
11 Apr ? 21:45:27 10° NNE 21:49:49 87° WNW 21:54:08 10° SSW visible
11 Apr ? 23:21:49 10° N 23:25:21 25° NW 23:28:52 10° WSW visible
12 Apr ? 00:59:14 10° NNW 01:00:05 10° NNW 01:00:55 10° NW visible
12 Apr ? 20:24:19 10° NNE 20:28:04 27° E 20:31:46 10° SSE visible
12 Apr ? 22:00:07 10° NNE 22:04:26 70° WNW 22:08:44 10° SSW visible
12 Apr ? 23:36:35 10° N 23:39:51 21° NW 23:43:06 10° W visible
13 Apr ? 20:38:51 10° NNE 20:42:49 34° E 20:46:46 10° SSE visible
13 Apr ? 22:14:47 10° NNE 22:19:03 57° WNW 22:23:16 10° SW visible
13 Apr ? 23:51:20 10° N 23:54:18 18° NW 23:57:17 10° W visible
